THORAD DELTA 1 DEB, 42613

Orbit data source: Space-Track

THORAD DELTA 1 DEB, 42613 is space debris in SSO originally from a launch on Fri, 15 Nov 1974 UTC launched from the Air Force Western Test Range (AFWTR). Debris objects in space refer to the collection of defunct objects orbiting the Earth. Examples of debris include non-operational satellites, rocket bodies, and fragments generated from explosions, collisions, or faulty payload assembly.

Loading next visibility...
Identifier
42613, 1974-089GE
Orbit
SSO
Country
Flag of USUS
Related business
Manufacturer
Unknown
Mission
Spacecraft
Bus & Motor
Unknown
Mass
Unknown
Launch date (UTC)
1974-11-15 (51 years ago)
Launch vehicle
Unknown
Launch site
Air Force Western Test Range (AFWTR)
Object type
Payload
Rocket body
Debris
Shape & HBR
Unknown shape, 0.1 m
Radar Cross Section
Small (<0.1 m²)

Expand to show TLE details & history
Last TLE update: 2 months ago

TLE from 2 months ago
0 THORAD DELTA 1 DEB
1 42613U 74089GE  26017.27117322 -.00000028  00000-0  13143-3 0  9991
2 42613 102.2557  24.0002 0067438 103.3021 272.0429 12.43774225552663
Epoch: 2026-01-17T06:30Z
TLE epoch observation values (Epoch: 2026-01-17T06:30:29.366Z)
Latitude
14.20868°
Longitude
166.54185°
Altitude
1,490.94 km
Speed
7.12 km/s
True Right ascension
01h 23m 27s
True Declination
14° 08' 05"
Sunlit
Object was in daylight at epoch
Visualization orbit readout
Latitude
Unknown
Longitude
Unknown
Altitude
Unknown
Speed
Unknown
Apparent Right ascension
Unknown
Apparent Declination
Unknown
Sunlit
N/A
Visualization observer readout
Local Sidereal Time
13:01:25
Azimuth
Unknown
Elevation
Unknown
Doppler factor
Unknown
Orbital elements
Apogee altitude
1,541.278 km
Perigee altitude
1,435.18 km
Semi-major axis
7,866.366 km
Eccentricity
0.00674
Inclination
102.2557°
RAAN
24.0002°
Arg. of periapsis
103.3021°
True anomaly
271.2704°
Mean anomaly
272.0429°
Eccentric anomaly
271.65667°
Mean motion
3.11087 °/min
Orbital period
115.72 mins
BSTAR
0.00013143
Loading maneuver chart data...
Computing Atmospheric mass density...

Documentation

Showing up to 5 results
|